Portada
METAR-TAF:

METAR-TAF

Aeroports :

Eagle River Union Airport

Eagle River, Wisconsin, Estats Units d'Amèrica

latitud: 45-55-54N, longitud: 089-16-09W, altitud: 501 m

Observació

L'informe es va fer fa 18 minuts, a les 12:55 UTC
Vent 5 kt del Oest
Temperatura -6°C
Humitat 100%
Pressió 1014 hPa
Visibilitat: 8.0 km
Cel cobert a una alçada de 600 ft
boirina

METAR: KEGV 111255Z AUTO 28005KT 5SM BR OVC006 M06/M06 A2993 RMK AO2 T10581065

Hora: 07:13 (13:13 UTC)


TAF: manca

Observacions i pronòstics meteorològics de més de 4000 aeroports (METAR i TAF).

Les estacions disponibles són els punts grocs i vermells al mapa.

Posi el ratolí al punt desitjat per veure el nom de l'estació.

Feu clic per veure les observacions i els pronòstics meteorològics.

Per canviar el mapa: feu clic els botons verds amb una creu de color negre per apropar; al botó verd amb un guió per allunyar la imatge; o en les fletxes verdes per a mapes adjacents.


METAR-TAF: